OBJECT L, 47423

Orbit data source: Space-Track

You're viewing an Uncataloged Satellite

Recently launched and/or uncataloged satellites may have evolving metadata. Metadata may include but not limited to: Owner, Maufacturer, Bus, Motor, and Mission.

OBJECT L, 47423 is a satellite in SSO that was launched on Sun, 24 Jan 2021 UTC launched from the Air Force Eastern Test Range (AFETR). Unknown objects in Earth's orbit typically refer to objects detected orbiting the Earth but have not yet been identified or cataloged. These objects could be anything from previously untracked satellites, spent rocket stages, debris from satellite collisions, or even natural meteoroids temporarily captured by Earth's gravity.

Loading next visibility...
Identifier
47423, 2021-006L
Orbit
SSO
Country
Flag of TBDTBD
Related business
Manufacturer
SpaceX/Seattle
Mission
Spacecraft
Bus & Motor
Unknown
Mass
~100 kg wet, ~100 kg dry
Launch date (UTC)
2021-01-24 (5 years ago)
Launch vehicle
Unknown
Launch site
Air Force Eastern Test Range (AFETR)
Object type
Unknown
Shape & HBR
Cyl, Unknown HBR
Radar Cross Section
0.110 m², Medium (>0.1 m² and < 1m²)

Expand to show TLE details & history
Last TLE update: 1 day ago

TLE from 1 day ago
0 OBJECT L
1 47423U 21006L   26172.47591782  .00004717  00000-0  14351-3 0  9996
2 47423  97.2221 218.9824 0011372 169.6101 190.5379 15.34434076300326
Epoch: 2026-06-21T11:25Z
TLE epoch observation values (Epoch: 2026-06-21T11:25:19.299Z)
Latitude
-0.0001°
Longitude
137.97635°
Altitude
473.367 km
Speed
7.625 km/s
True Right ascension
14h 35m 55s
True Declination
0° 00' 00"
Sunlit
Object was in full shadow at epoch
Visualization orbit readout
Latitude
Unknown
Longitude
Unknown
Altitude
Unknown
Speed
Unknown
Apparent Right ascension
Unknown
Apparent Declination
Unknown
Sunlit
N/A
Visualization observer readout
Local Sidereal Time
23:18:54
Azimuth
Unknown
Elevation
Unknown
Doppler factor
Unknown
Orbital elements
Apogee altitude
467.317 km
Perigee altitude
451.765 km
Semi-major axis
6,837.678 km
Eccentricity
0.00114
Inclination
97.2221°
RAAN
218.9824°
Arg. of periapsis
169.6101°
True anomaly
190.5141°
Mean anomaly
190.5379°
Eccentric anomaly
190.526°
Mean motion
3.83867 °/min
Orbital period
93.78 mins
BSTAR
0.00014351
Loading maneuver chart data...
Computing Atmospheric mass density...

Documentation

Showing up to 5 results
|